Location: Chuathbaluk
(61.5726°N, 159.2454°W)
Time: 11:10:33
(UTC+00:00)

BEESAT - Visible Passes

Search period start: 16 January 2021 00:00
Search period end: 26 January 2021 00:00
Orbit: 700 x 708 km, 98.6° (Epoch: 15 January)

Date Brightness Start Highest point End Pass type
(mag) Time Alt. Az. Time Alt. Az. Time Alt. Az.
16 Jan ? 04:28:53 13° SE 04:28:53 13° SE 04:29:43 10° SE visible
16 Jan ? 06:07:48 22° SSW 06:07:48 22° SSW 06:09:29 10° SSW visible
16 Jan ? 14:02:41 10° E 14:06:14 22° NE 14:06:14 22° NE visible
16 Jan ? 15:38:37 10° SSE 15:43:23 70° ENE 15:45:10 38° N visible
16 Jan ? 17:17:26 10° SSW 17:21:34 28° W 17:24:06 18° NW visible
17 Jan ? 05:12:33 21° SSE 05:12:33 21° SSE 05:14:25 10° SSE visible
17 Jan ? 06:51:28 17° SW 06:51:28 17° SW 06:52:37 10° SW visible
17 Jan ? 13:10:23 10° ENE 13:11:19 12° NE 13:11:19 12° NE visible
17 Jan ? 14:44:53 10° ESE 14:49:11 34° NE 14:50:14 31° NNE visible
17 Jan ? 16:21:59 10° S 16:26:45 64° WSW 16:29:11 28° NNW visible
17 Jan ? 18:02:38 10° WSW 18:05:28 15° W 18:08:07 11° NW visible
18 Jan ? 04:17:17 12° ESE 04:17:17 12° ESE 04:18:01 10° SE visible
18 Jan ? 05:56:12 26° S 05:56:12 26° S 05:58:19 10° S visible
18 Jan ? 07:35:07 11° WSW 07:35:07 11° WSW 07:35:14 10° WSW visible
18 Jan ? 13:51:56 10° E 13:55:18 19° NE 13:55:20 19° NE visible
18 Jan ? 15:27:35 10° SE 15:32:17 60° ENE 15:34:16 33° N visible
18 Jan ? 17:06:00 10° SSW 17:10:20 33° W 17:13:12 18° NW visible
19 Jan ? 05:00:56 22° SE 05:00:56 22° SE 05:03:01 10° SSE visible
19 Jan ? 06:39:50 23° SW 06:39:50 23° SW 06:41:36 10° SW visible
19 Jan ? 12:59:51 10° NE 13:00:26 11° NE 13:00:26 11° NE visible
19 Jan ? 14:34:01 10° ESE 14:38:10 30° NE 14:39:22 27° NNE visible
19 Jan ? 16:10:48 10° SSE 16:15:36 75° WSW 16:18:18 26° NNW visible
19 Jan ? 17:50:52 10° SW 17:54:10 18° W 17:57:14 11° NW visible
20 Jan ? 04:05:39 11° ESE 04:05:39 11° ESE 04:06:10 10° ESE visible
20 Jan ? 05:44:33 31° S 05:44:33 31° S 05:47:06 10° S visible
20 Jan ? 07:23:28 15° WSW 07:23:28 15° WSW 07:24:21 10° WSW visible
20 Jan ? 13:41:14 10° E 13:44:20 17° NE 13:44:29 17° NE visible
20 Jan ? 15:16:35 10° SE 15:21:13 51° ENE 15:23:25 28° N visible
20 Jan ? 16:54:37 10° SSW 16:59:08 40° W 17:02:22 17° NW visible
21 Jan ? 04:49:16 21° SE 04:49:16 21° SE 04:51:33 10° SSE visible
21 Jan ? 06:28:11 29° SSW 06:28:11 29° SSW 06:30:31 10° SSW visible
21 Jan ? 12:49:27 10° NE 12:49:36 10° NE 12:49:36 10° NE visible
21 Jan ? 14:23:11 10° ESE 14:27:08 27° NE 14:28:33 23° NNE visible
21 Jan ? 15:59:39 10° SSE 16:04:28 88° WSW 16:07:29 23° NNW visible
21 Jan ? 17:39:13 10° SW 17:42:52 21° W 17:46:25 11° NW visible
22 Jan ? 03:53:58 10° E 03:53:58 10° E 03:54:05 10° ESE visible
22 Jan ? 05:32:52 34° SSE 05:32:52 34° SSE 05:35:51 10° S visible
22 Jan ? 07:11:46 20° WSW 07:11:46 20° WSW 07:13:25 10° SW visible
22 Jan ? 13:30:34 10° ENE 13:33:22 16° NE 13:33:42 16° NNE visible
22 Jan ? 15:05:36 10° SE 15:10:09 44° ENE 15:12:38 24° N visible
22 Jan ? 16:43:18 10° S 16:47:55 47° W 16:51:34 16° NNW visible
22 Jan ? 18:25:26 10° W 18:26:53 11° WNW 18:28:21 10° WNW visible
23 Jan ? 04:37:33 20° ESE 04:37:33 20° ESE 04:40:01 10° SE visible
23 Jan ? 06:16:27 39° SSW 06:16:27 39° SSW 06:19:26 10° SSW visible
23 Jan ? 07:55:22 12° W 07:55:22 12° W 07:55:48 10° WSW visible
23 Jan ? 14:12:22 10° E 14:16:08 24° NE 14:17:47 20° NNE visible
23 Jan ? 15:48:32 10° SSE 15:53:20 79° ENE 15:56:44 20° NNW visible
23 Jan ? 17:27:39 10° SSW 17:31:37 25° W 17:35:35 10° NW visible
24 Jan ? 05:21:07 36° SE 05:21:07 36° SE 05:24:32 10° S visible
24 Jan ? 07:00:02 28° WSW 07:00:02 28° WSW 07:02:27 10° SW visible
24 Jan ? 13:19:56 10° ENE 13:22:25 14° NNE 13:22:59 14° NNE visible
24 Jan ? 14:54:40 10° ESE 14:59:05 38° NE 15:01:56 19° N visible
24 Jan ? 16:32:01 10° S 16:36:44 56° WSW 16:40:52 13° NNW visible
24 Jan ? 18:13:12 10° WSW 18:15:33 13° W 18:17:55 10° NW visible
25 Jan ? 04:25:46 18° E 04:25:46 18° E 04:28:24 10° SE visible
25 Jan ? 06:04:40 52° S 06:04:40 52° S 06:08:18 10° SSW visible
25 Jan ? 07:43:34 17° W 07:43:34 17° W 07:44:58 10° WSW visible
25 Jan ? 14:01:36 10° E 14:05:08 21° NE 14:07:09 16° NNE visible
25 Jan ? 15:37:28 10° SSE 15:42:13 67° ENE 15:46:05 16° NNW visible
25 Jan ? 17:16:11 10° SSW 17:20:22 30° W 17:24:35 10° NNW visible
